Weather History for KMWL - January, 2014

Change the Weather History Date:

Sunday, January 12, 2014

  Actual Average Record
Temperature  
Mean Temperature 57 °F -  
Max Temperature 75 °F 55 °F 82 °F (2000)
Min Temperature 39 °F 32 °F 19 °F (1997)
Degree Days  
Heating Degree Days 8    
Growing Degree Days 7 (Base 50)    
Moisture  
Dew Point 34 °F    
Average Humidity 46    
Maximum Humidity 65    
Minimum Humidity 19    
Precipitation  
Precipitation 0.00 in - - ()
Sea Level Pressure  
Sea Level Pressure 29.85 in    
Wind  
Wind Speed 12 mph (SSE)    
Max Wind Speed 28 mph    
Max Gust Speed 41 mph    
Visibility 10 miles    
Events      
Averages and records for this station are not official NWS values.
T = Trace of Precipitation, MM = Missing Value Source: NWS Daily Summary

Daily Weather History Graph

Daily Weather History Graph

Search for Another Location

Airport or City:

Trip Planner

Search our weather history database for the weather conditions in past years. The results will help you decide how hot, cold, wet, or windy it might be!

Date:

Astronomy

Jan. 12, 2014 Rise Set
Actual Time 7:35 AM CST 5:46 PM CST
Civil Twilight 7:08 AM CST 6:13 PM CST
Nautical Twilight 6:38 AM CST 6:43 PM CST
Astronomical Twilight 6:08 AM CST 7:13 PM CST
Moon 3:14 PM CST (1/12) 4:36 AM CST (1/12)
Length of Visible Light 11h 04m
Length of Day
10h 11m
Waxing Gibbous, 90% of the Moon is Illuminated
Jan 12
Waxing Gibbous
Jan 15
Full
Jan 23
Last Quarter
Jan 30
New
Feb 6
First Quarter

Hourly Weather History & Observations

Time (CST) Temp. Windchill Dew Point Humidity Pressure Visibility Wind Dir Wind Speed Gust Speed Precip Events Conditions
12:53 AM 39.0 °F 33.4 °F 26.1 °F 60% 30.00 in 10.0 mi SE 8.1 mph - N/A   Clear
1:53 AM 39.9 °F 35.1 °F 27.0 °F 60% 29.99 in 10.0 mi SE 6.9 mph - N/A   Clear
2:53 AM 39.9 °F 33.4 °F 27.0 °F 60% 29.98 in 10.0 mi SE 10.4 mph - N/A   Clear
3:53 AM 42.1 °F 36.1 °F 28.0 °F 58% 29.96 in 10.0 mi SE 10.4 mph - N/A   Clear
4:53 AM 39.9 °F 33.4 °F 28.9 °F 65% 29.94 in 10.0 mi SE 10.4 mph - N/A   Clear
5:53 AM 42.1 °F 37.1 °F 30.0 °F 62% 29.93 in 10.0 mi SE 8.1 mph - N/A   Clear
6:53 AM 42.1 °F 39.2 °F 28.9 °F 60% 29.94 in 10.0 mi SSE 4.6 mph - N/A   Clear
7:53 AM 43.0 °F 37.2 °F 30.0 °F 60% 29.94 in 10.0 mi SE 10.4 mph - N/A   Clear
8:53 AM 50.0 °F - 30.9 °F 48% 29.96 in 10.0 mi SSE 8.1 mph - N/A   Clear
9:53 AM 59.0 °F - 30.9 °F 35% 29.95 in 10.0 mi SSE 10.4 mph - N/A   Clear
10:53 AM 66.9 °F - 26.1 °F 21% 29.92 in 10.0 mi South 19.6 mph 34.5 mph N/A   Clear
11:53 AM 70.0 °F - 28.0 °F 21% 29.87 in 10.0 mi South 23.0 mph 33.4 mph N/A   Clear
12:53 PM 73.0 °F - 30.9 °F 21% 29.81 in 10.0 mi SSW 21.9 mph 36.8 mph N/A   Clear
1:53 PM 75.9 °F - 30.0 °F 19% 29.78 in 10.0 mi SSW 20.7 mph 35.7 mph N/A   Clear
2:53 PM 75.9 °F - 30.0 °F 19% 29.75 in 10.0 mi SSW 27.6 mph 41.4 mph N/A   Clear
3:53 PM 75.0 °F - 35.1 °F 23% 29.73 in 10.0 mi South 21.9 mph 32.2 mph N/A   Clear
4:53 PM 71.1 °F - 41.0 °F 34% 29.75 in 10.0 mi South 11.5 mph 21.9 mph N/A   Clear
5:53 PM 64.9 °F - 39.9 °F 40% 29.74 in 10.0 mi SSE 10.4 mph - N/A   Clear
6:53 PM 64.0 °F - 44.1 °F 48% 29.75 in 10.0 mi South 12.7 mph - N/A   Clear
7:53 PM 62.1 °F - 46.0 °F 56% 29.76 in 10.0 mi SSE 13.8 mph - N/A   Clear
8:53 PM 61.0 °F - 46.0 °F 58% 29.76 in 10.0 mi South 11.5 mph - N/A   Clear
9:53 PM 61.0 °F - 46.9 °F 60% 29.75 in 10.0 mi South 11.5 mph - N/A   Clear
10:53 PM 61.0 °F - 46.9 °F 60% 29.75 in 10.0 mi South 11.5 mph - N/A   Clear
11:53 PM 62.1 °F - 46.9 °F 58% 29.76 in 10.0 mi SSW 12.7 mph - N/A   Clear